27 Oct
2007
27 Oct
'07
9:52 a.m.
ISS (ZARYA) 1 25544U 98067A 07299.95923674 .00013156 00000-0 86870-4 0 2354 2 25544 51.6382 144.3740 0002748 130.1483 16.7911 15.75988536511561
6266
Age (days ago)
6266
Last active (days ago)
0 comments
1 participants
participants (1)
-
Arthur Rowe